Weather History for KIML - April, 2014

Change the Weather History Date:

Monday, April 21, 2014

  Actual Average Record
Temperature  
Mean Temperature 58 °F 50 °F  
Max Temperature 73 °F 64 °F 93 °F (1989)
Min Temperature 43 °F 36 °F 14 °F (1907)
Degree Days  
Heating Degree Days 7 15  
Month to date heating degree days 345 380  
Cooling Degree Days 0 0  
Month to date cooling degree days 0 0  
Year to date cooling degree days 0 0  
Growing Degree Days 8 (Base 50)    
Moisture  
Dew Point 27 °F    
Average Humidity 39    
Maximum Humidity 64    
Minimum Humidity 14    
Precipitation  
Precipitation 0.00 in 0.08 in 0.97 in (1991)
Sea Level Pressure  
Sea Level Pressure 30.13 in    
Wind  
Wind Speed 10 mph (NE)    
Max Wind Speed 24 mph    
Max Gust Speed 29 mph    
Visibility 10 miles    
Events      
T = Trace of Precipitation, MM = Missing Value Source: NWS Daily Summary

Daily Weather History Graph

Daily Weather History Graph

Search for Another Location

Airport or City:

Trip Planner

Search our weather history database for the weather conditions in past years. The results will help you decide how hot, cold, wet, or windy it might be!

Date:

Astronomy

Apr. 21, 2014 Rise Set
Actual Time 5:59 AM MDT 7:31 PM MDT
Civil Twilight 5:30 AM MDT 8:00 PM MDT
Nautical Twilight 4:55 AM MDT 8:35 PM MDT
Astronomical Twilight 4:19 AM MDT 9:12 PM MDT
Moon 1:03 AM MDT (4/21) 11:27 AM MDT (4/21)
Length of Visible Light 14h 30m
Length of Day
13h 32m
Waning Gibbous, 57% of the Moon is Illuminated
Apr 21
Waning Gibbous
Apr 22
Last Quarter
Apr 29
New
May 6
First Quarter
May 14
Full

Hourly Weather History & Observations

Time (MDT) Temp. Windchill Dew Point Humidity Pressure Visibility Wind Dir Wind Speed Gust Speed Precip Events Conditions
12:53 AM 53.1 °F - 41.0 °F 64% 29.99 in 10.0 mi North 12.7 mph - N/A   Clear
1:53 AM 55.0 °F - 37.9 °F 53% 30.01 in 10.0 mi NNE 16.1 mph - N/A   Clear
2:53 AM 50.0 °F - 37.0 °F 61% 30.04 in 10.0 mi North 11.5 mph - N/A   Clear
3:53 AM 46.9 °F - 33.1 °F 59% 30.07 in 10.0 mi North 9.2 mph - N/A   Clear
4:53 AM 46.0 °F 41.0 °F 32.0 °F 58% 30.09 in 10.0 mi NNW 10.4 mph - N/A   Clear
5:53 AM 45.0 °F 38.5 °F 30.0 °F 56% 30.12 in 10.0 mi North 13.8 mph - N/A   Clear
6:53 AM 46.0 °F 40.6 °F 28.9 °F 51% 30.16 in 10.0 mi North 11.5 mph - N/A   Clear
7:53 AM 52.0 °F - 28.0 °F 40% 30.18 in 10.0 mi North 15.0 mph - N/A   Clear
8:53 AM 57.9 °F - 24.1 °F 27% 30.18 in 10.0 mi NNE 21.9 mph - N/A   Clear
9:53 AM 63.0 °F - 21.9 °F 21% 30.20 in 10.0 mi NE 20.7 mph 27.6 mph N/A   Clear
10:53 AM 66.0 °F - 21.9 °F 19% 30.20 in 10.0 mi NNE 15.0 mph - N/A   Scattered Clouds
11:53 AM 70.0 °F - 21.0 °F 16% 30.19 in 10.0 mi NE 12.7 mph 19.6 mph N/A   Partly Cloudy
12:53 PM 70.0 °F - 19.0 °F 14% 30.17 in 10.0 mi North - - N/A   Clear
1:53 PM 72.0 °F - 19.9 °F 14% 30.15 in 10.0 mi NNE 10.4 mph 20.7 mph N/A   Clear
2:53 PM 71.1 °F - 19.9 °F 14% 30.14 in 10.0 mi Variable 4.6 mph - N/A   Clear
3:53 PM 71.1 °F - 21.0 °F 15% 30.13 in 10.0 mi Calm Calm - N/A   Clear
4:53 PM 72.0 °F - 21.9 °F 15% 30.12 in 10.0 mi NNW 4.6 mph - N/A   Clear
5:53 PM 71.1 °F - 21.9 °F 16% 30.12 in 10.0 mi NE 5.8 mph - N/A   Clear
6:53 PM 66.9 °F - 24.1 °F 20% 30.12 in 10.0 mi ESE 6.9 mph - N/A   Clear
7:53 PM 54.0 °F - 27.0 °F 35% 30.13 in 10.0 mi SE 5.8 mph - N/A   Clear
8:53 PM 50.0 °F - 27.0 °F 41% 30.16 in 10.0 mi East 6.9 mph - N/A   Clear
9:53 PM 46.9 °F - 26.1 °F 44% 30.16 in 10.0 mi SE 6.9 mph - N/A   Clear
10:53 PM 45.0 °F 40.1 °F 28.0 °F 52% 30.15 in 10.0 mi SE 9.2 mph - N/A   Clear
11:53 PM 46.0 °F 40.6 °F 28.0 °F 50% 30.14 in 10.0 mi SSE 11.5 mph - N/A   Clear